This is the latest recevied weather packets stored in our database for station/object K1TTC. If no packets are shown the sender has not sent any weather packets the latest 10 day(s).
| Time | Temp. | Humidity | Pressure | Rain* | Wind** | Luminosity | Snow |
|---|---|---|---|---|---|---|---|
| 1777928552 | 22.78° C | 23% | 1007.7 hPa | 0 mm | - | 163 W/m² | - |
| 1777927953 | 22.78° C | 24% | 1007.8 hPa | 0 mm | - | 357 W/m² | - |
| 1777927350 | 22.22° C | 24% | 1007.7 hPa | 0 mm | - | 265 W/m² | - |
| 1777926750 | 22.78° C | 23% | 1007.8 hPa | 0 mm | - | 227 W/m² | - |
| 1777926150 | 22.78° C | 24% | 1007.8 hPa | 0 mm | - | 114 W/m² | - |
| 1777925551 | 22.78° C | 23% | 1007.7 hPa | 0 mm | - | 236 W/m² | - |
| 1777924950 | 22.78° C | 22% | 1007.7 hPa | 0 mm | - | 334 W/m² | - |
| 1777924350 | 23.33° C | 22% | 1007.8 hPa | 0 mm | - | 703 W/m² | - |
| 1777923750 | 23.33° C | 23% | 1007.8 hPa | 0 mm | - | 701 W/m² | - |
| 1777923150 | 22.78° C | 22% | 1007.7 hPa | 0 mm | - | 708 W/m² | - |
| 1777922551 | 22.78° C | 21% | 1007.8 hPa | 0 mm | - | 724 W/m² | - |
| 1777921951 | 22.78° C | 21% | 1007.7 hPa | 0 mm | - | 779 W/m² | - |
| 1777921350 | 22.78° C | 22% | 1007.8 hPa | 0 mm | - | 768 W/m² | - |
| 1777920748 | 22.78° C | 22% | 1008 hPa | 0 mm | - | 788 W/m² | - |
| 1777920150 | 22.22° C | 22% | 1008.2 hPa | 0 mm | - | 810 W/m² | - |
| 1777919548 | 22.78° C | 22% | 1008.3 hPa | 0 mm | - | 858 W/m² | - |
| 1777918948 | 22.22° C | 22% | 1008.3 hPa | 0 mm | - | 849 W/m² | - |
| 1777918348 | 22.78° C | 22% | 1008.1 hPa | 0 mm | - | 860 W/m² | - |
| 1777917749 | 22.22° C | 22% | 1008.2 hPa | 0 mm | - | 865 W/m² | - |
| 1777917146 | 22.78° C | 24% | 1008.3 hPa | 0 mm | - | 877 W/m² | - |
| 1777916614 | 22.22° C | 24% | 1008.2 hPa | 0 mm | - | 896 W/m² | - |
| 1777915944 | 21.67° C | 26% | 1008.5 hPa | 0 mm | - | 896 W/m² | - |
| 1777915345 | 21.67° C | 25% | 1008.5 hPa | 0 mm | - | 905 W/m² | - |
| 1777914744 | 21.67° C | 25% | 1008.7 hPa | 0 mm | - | 911 W/m² | - |
| 1777914146 | 21.11° C | 25% | 1008.7 hPa | 0 mm | - | 918 W/m² | - |
* Rain latest hour (hover to see other rain measurements)
** Current wind speed in m/s (hover to see current wind gust speed)